Wind_Speed
14 14 14 15 14 13 14 15 16 18 18 18 19 18 18 18 19 20 22 22 18 13 12 11 8 7 7 8 8 10 11 10 11 13 13 13 12 12 13 13 13 13 13 14 15 15 16 17 18 19 19 20 20 21 21 21 20 20 20 21 21 21 21 22 22 21 21 22 23 25 24 22 20 19
15 16 16 16 15 14 14 15 16 17 18 19 19 19 19 20 20 20 22 23 19 14 12 11 9 9 9 10 11 11 11 11 12 14 14 15 15 14 15 16 16 16 16 16 16 17 17 18 19 19 20 21 21 21 22 22 21 21 21 22 22 22 22 22 22 21 22 22 24 25 23 21 20 19
17 17 17 17 16 15 15 15 16 17 18 18 18 18 20 21 22 21 22 24 19 12 11 10 10 11 12 12 13 13 13 13 14 15 16 16 16 16 17 17 18 18 18 18 18 18 18 19 19 20 21 21 22 22 22 22 22 22 22 23 23 23 23 22 21 21 22 23 24 24 22 20 19 19
18 18 18 18 16 15 16 16 16 16 17 18 18 18 19 21 23 22 23 26 22 16 15 15 14 14 15 16 17 16 15 15 16 17 17 17 18 18 19 18 19 19 20 20 20 19 19 19 20 21 22 22 23 23 23 23 22 22 23 23 24 23 23 22 22 21 22 23 24 23 21 19 20 20
19 19 19 19 17 17 17 17 16 16 17 18 19 19 20 20 22 23 24 27 27 23 21 19 17 17 18 19 18 18 19 18 19 19 19 19 20 20 20 20 20 20 20 21 21 20 20 20 21 22 23 23 24 24 24 23 23 23 23 24 24 24 23 23 22 22 22 22 23 23 21 19 20 21
20 20 20 20 18 18 19 18 18 17 17 19 19 20 21 21 22 23 25 27 30 29 25 23 22 20 20 21 20 19 20 20 21 22 22 22 22 23 23 23 22 21 21 21 22 22 22 22 22 23 24 24 24 24 24 24 24 23 24 24 24 24 24 23 22 22 22 22 23 23 21 20 21 22
22 22 22 21 19 19 20 20 19 19 19 20 21 21 21 22 22 23 25 27 30 31 30 28 26 24 24 24 23 22 23 23 23 24 24 24 25 25 26 26 25 24 23 23 23 24 24 24 24 25 25 25 25 25 25 25 25 24 24 25 25 25 24 24 23 22 22 22 22 22 22 20 20 22
23 23 23 21 20 21 21 21 20 20 21 21 22 22 22 23 23 24 26 28 30 32 34 32 30 29 29 28 27 27 27 27 27 27 27 27 27 28 28 29 28 27 26 26 26 26 26 27 27 27 27 27 27 27 27 27 26 26 26 26 25 25 25 24 24 23 23 23 23 22 22 21 20 22
24 24 23 22 21 21 22 21 21 21 22 22 23 24 24 24 25 25 27 29 31 33 36 35 34 33 33 33 31 31 32 32 32 32 32 31 31 31 31 31 30 29 29 29 29 28 29 29 29 29 29 29 28 28 28 28 28 28 27 27 27 26 26 26 25 24 24 24 23 23 23 22 21 21
24 24 24 22 22 22 22 22 21 22 22 23 24 25 25 25 26 27 28 29 31 33 35 37 37 36 36 36 35 34 34 36 36 36 36 36 35 35 35 34 33 32 32 32 31 31 31 30 31 31 31 31 30 30 29 29 29 29 29 29 28 28 28 28 27 26 25 25 24 24 24 23 22 21
25 25 25 24 24 24 24 23 23 24 24 25 25 25 26 27 27 29 29 30 32 33 35 36 38 38 38 38 37 36 36 38 38 38 38 38 37 37 37 37 35 35 36 36 35 34 33 33 32 32 32 32 32 33 32 31 31 31 31 30 30 29 29 29 29 28 27 26 25 25 25 25 23 21
28 28 27 28 27 27 27 27 27 27 27 28 28 28 29 30 30 31 32 33 34 35 36 37 38 39 39 39 39 38 38 39 39 37 38 40 40 38 39 39 36 35 36 37 38 38 37 36 35 35 34 34 34 34 34 34 33 33 33 32 31 31 31 30 30 29 28 27 26 26 26 27 25 22
30 30 30 30 30 30 30 29 29 29 29 30 31 31 31 32 33 33 34 35 36 36 38 39 39 40 41 41 39 39 39 39 39 38 39 42 41 40 41 41 38 36 36 36 37 38 38 38 39 39 38 36 35 35 36 36 36 35 34 34 33 32 32 31 31 30 29 28 27 26 27 28 27 24
32 32 32 32 32 32 31 31 30 30 29 30 30 30 31 32 33 34 34 35 36 37 38 40 39 41 43 42 40 41 41 40 41 41 42 43 42 41 43 42 39 36 35 37 38 37 35 35 37 39 39 39 37 37 37 37 37 37 36 35 34 34 33 32 32 30 30 28 27 27 28 29 29 26
33 33 33 33 33 33 32 31 31 30 29 29 29 29 29 30 31 33 34 34 35 36 38 39 39 41 43 42 40 41 41 41 42 42 43 43 43 42 43 44 41 37 36 38 40 38 34 32 34 34 35 37 37 37 36 36 36 37 37 37 36 35 34 34 33 32 30 30 28 28 28 29 30 27
34 34 34 34 34 33 32 32 31 30 29 29 28 28 27 28 30 31 33 34 34 35 38 40 41 42 42 42 41 40 40 40 41 43 44 43 42 42 42 44 43 41 39 40 41 40 36 33 34 34 34 35 36 36 36 35 35 35 36 37 37 37 36 35 34 33 32 31 30 29 29 29 30 28
35 35 35 35 34 33 33 32 31 30 29 28 28 28 27 28 28 29 31 32 33 34 36 40 42 41 41 42 41 38 37 39 42 43 44 43 42 42 42 43 44 43 42 42 44 43 40 36 36 37 37 37 36 36 36 35 34 34 35 37 37 37 37 36 35 35 33 32 31 30 29 29 30 29
35 35 35 35 35 33 33 32 31 30 29 29 29 28 28 28 28 29 31 31 31 32 34 37 40 38 38 40 40 36 34 37 39 41 43 42 39 38 39 41 42 42 42 43 44 45 44 42 42 42 40 39 38 37 37 35 34 33 34 35 36 36 37 37 37 36 34 33 33 32 30 29 29 29
36 35 35 35 35 34 33 32 31 30 29 30 31 31 30 29 29 31 32 31 31 31 32 34 37 35 34 36 37 35 34 36 37 39 41 40 36 36 40 41 39 40 44 46 45 46 47 46 48 48 45 43 43 41 39 39 37 35 35 34 35 36 37 38 38 37 36 34 33 33 32 30 29 29
35 34 35 35 34 33 32 31 30 29 30 31 32 33 32 31 31 33 33 32 32 32 31 32 33 33 32 32 34 35 36 38 40 42 42 41 40 42 45 45 43 41 44 47 45 46 50 50 49 48 46 46 47 45 43 41 39 37 36 36 36 37 38 39 40 38 37 36 35 34 32 30 29 29
33 33 33 33 33 33 32 30 29 29 30 32 33 34 34 33 33 34 33 33 32 31 30 31 31 32 33 33 34 37 38 40 41 42 41 41 42 45 47 50 50 44 44 48 47 47 53 53 51 50 49 48 50 48 46 44 42 39 37 37 38 38 39 40 41 40 38 37 36 35 33 31 29 28
31 31 30 30 32 32 30 29 28 28 30 32 33 34 34 35 36 35 32 32 33 33 32 33 33 35 37 38 39 39 39 39 38 38 39 38 38 41 45 48 49 48 47 47 46 48 52 51 48 49 49 48 49 47 45 44 43 42 40 38 38 39 39 39 41 42 40 38 37 36 34 32 30 29
29 29 29 28 29 29 28 27 27 27 29 31 32 32 34 36 36 32 29 30 34 36 37 38 39 40 40 40 41 40 39 39 38 37 37 37 38 41 44 44 46 49 49 45 43 45 48 48 47 46 45 46 47 46 44 42 41 40 41 41 39 38 38 39 41 43 42 40 39 37 35 33 31 30
27 27 27 27 26 25 25 24 24 24 26 28 30 31 34 35 32 28 28 31 33 36 39 40 39 39 40 41 41 41 40 39 38 36 34 33 36 41 43 42 43 48 49 45 42 45 45 45 46 46 45 47 47 46 45 44 41 39 41 43 41 39 37 37 41 44 44 42 41 39 36 35 34 32
26 25 25 24 22 21 21 21 21 21 23 26 29 30 31 33 31 26 26 29 31 32 35 36 36 36 38 39 39 37 36 34 34 35 34 32 33 35 37 38 40 44 46 44 44 48 48 47 47 47 47 49 50 49 49 47 45 43 44 44 43 42 39 38 40 45 45 43 41 39 38 37 36 34
24 23 22 20 19 18 19 20 20 21 22 25 27 28 28 30 32 29 26 27 28 29 30 32 33 32 32 32 32 31 32 32 31 30 31 32 32 33 35 36 38 42 45 44 43 47 51 51 51 50 49 51 52 52 51 49 48 47 48 48 47 46 43 40 40 44 47 46 44 41 40 39 37 34
22 21 20 19 19 18 19 21 21 22 23 23 25 27 27 28 31 25 17 16 20 24 25 27 27 26 26 28 31 32 34 36 36 35 34 36 37 37 38 38 41 45 47 46 44 46 50 53 53 52 52 54 53 52 51 51 51 50 51 52 50 49 48 43 40 43 47 48 46 43 41 40 38 35
20 21 20 20 20 19 20 22 22 23 24 24 26 28 28 29 27 13 3 2 13 19 21 22 23 25 27 30 32 34 35 37 38 38 37 38 39 40 39 39 42 45 46 46 46 48 51 54 55 55 55 55 54 54 53 53 53 51 50 51 51 50 50 45 41 43 47 49 48 46 44 43 41 38
20 21 21 20 20 20 20 22 23 25 26 27 28 29 29 31 29 14 1 7 17 20 21 24 25 27 29 30 31 33 33 34 35 35 35 35 37 39 40 42 44 45 45 46 47 47 50 53 56 57 57 56 56 57 56 56 55 52 50 50 52 52 51 48 43 42 47 51 51 49 48 47 45 41
19 20 20 20 21 21 22 24 26 28 28 28 29 30 29 29 26 17 11 14 18 19 23 26 26 27 28 29 29 30 30 31 32 31 33 35 36 38 40 43 45 47 46 46 46 46 47 49 51 53 56 57 57 58 57 56 55 53 50 50 50 50 50 48 45 44 47 51 53 52 49 48 45 42
19 20 21 22 22 23 25 27 27 28 28 27 27 26 23 20 19 17 16 16 16 17 20 22 23 24 25 25 26 26 27 29 30 30 32 35 37 38 39 42 44 45 45 44 44 44 43 44 46 47 50 52 54 55 55 55 54 52 50 49 50 51 52 51 48 47 48 51 53 53 50 49 46 42
19 21 23 24 25 26 27 27 27 26 25 23 20 18 17 16 16 17 16 16 15 16 16 17 18 19 19 20 21 23 25 27 29 29 31 33 35 36 38 41 44 46 46 45 44 41 41 42 43 44 46 49 51 51 51 53 54 53 51 52 53 53 53 54 53 49 48 52 55 55 52 51 48 44
20 22 23 25 26 26 26 25 24 22 19 16 14 15 16 16 16 15 16 16 16 15 14 14 15 16 17 19 20 22 25 27 28 29 30 32 35 37 38 42 45 46 48 49 47 42 39 39 40 41 43 45 47 49 50 51 53 53 53 55 56 55 54 54 53 50 50 53 57 56 54 53 49 45
21 22 23 23 23 23 23 21 19 17 13 11 13 15 15 14 14 15 15 14 14 13 14 15 16 18 20 21 23 25 28 29 30 31 32 33 36 38 40 43 45 46 47 49 48 43 39 38 37 38 39 41 45 48 48 49 51 52 52 53 54 54 54 54 54 54 53 54 57 59 58 54 50 48
21 21 22 21 21 20 18 17 15 12 11 11 12 13 13 13 14 14 14 13 13 14 15 16 17 19 21 23 26 27 28 30 32 32 34 35 36 38 39 42 45 46 45 47 47 43 39 36 34 35 37 39 42 46 46 46 50 52 52 51 52 53 54 55 56 56 55 55 58 61 60 56 53 51
18 18 18 18 17 16 14 12 10 9 10 11 12 12 12 13 13 12 12 13 14 14 15 17 18 21 23 24 26 27 28 30 32 33 34 35 36 38 39 41 43 44 43 43 43 40 37 33 30 32 35 37 39 42 43 43 45 48 49 50 52 54 55 55 53 53 55 57 59 61 60 58 57 55
11 11 11 11 10 9 8 8 8 8 9 10 11 11 12 12 12 12 12 13 14 15 17 18 20 22 23 24 26 27 28 30 31 33 34 35 36 38 40 42 43 43 41 39 38 36 34 30 28 29 34 37 40 43 42 40 39 42 45 48 51 53 54 53 50 50 52 54 55 58 60 60 59 56
7 8 8 6 5 5 7 7 7 8 9 9 10 10 10 10 10 11 12 13 14 16 17 19 20 21 22 24 25 27 28 29 30 32 33 34 36 38 41 44 44 42 39 36 34 32 31 29 28 28 32 37 41 42 41 39 38 38 40 43 47 51 53 53 52 52 52 52 54 58 59 59 59 56
6 7 6 4 4 6 7 8 8 8 8 8 8 8 8 9 10 11 12 13 14 16 17 18 19 20 21 23 25 27 29 30 31 33 34 35 36 38 41 42 43 41 37 34 33 31 30 29 29 29 31 34 37 37 37 38 39 37 36 38 42 47 53 56 56 55 53 52 53 56 56 54 53 48
5 5 5 5 5 6 7 7 7 7 7 6 5 6 7 8 10 11 11 12 14 15 16 16 17 19 21 23 25 27 29 30 32 34 35 36 36 38 39 40 40 39 37 33 31 30 29 29 30 30 31 32 33 33 34 37 38 37 35 36 37 41 48 55 56 55 54 53 54 56 55 52 47 42
5 5 5 5 5 5 5 6 5 5 4 3 4 5 7 9 10 10 10 12 14 14 13 15 17 20 22 25 27 29 31 32 33 34 36 37 37 37 38 39 40 40 38 35 32 30 29 28 27 28 29 30 31 32 34 36 37 37 36 37 36 35 40 46 48 50 51 51 52 53 51 47 44 41
2 2 2 2 2 3 4 4 3 2 2 2 3 5 7 9 8 8 9 11 12 11 12 15 18 20 23 26 28 30 31 32 34 35 36 37 38 38 38 38 39 40 38 37 35 34 32 29 26 23 22 23 24 27 31 32 33 33 32 32 31 30 33 37 39 42 44 45 49 52 51 47 43 40
2 1 1 1 1 2 2 2 1 2 2 1 3 6 8 9 8 7 8 9 9 9 12 15 17 20 23 26 28 29 31 32 34 35 36 36 36 37 38 37 37 37 37 35 34 34 34 34 32 29 24 20 19 20 22 24 23 22 21 20 20 21 24 27 30 33 35 37 41 46 47 46 43 39
3 4 4 3 2 1 1 2 3 3 2 2 5 7 9 8 7 6 7 8 8 10 12 14 16 19 22 25 27 28 30 31 32 33 34 34 34 34 35 35 34 34 33 32 31 32 32 32 32 30 26 22 18 15 14 14 13 10 8 8 9 12 15 16 19 23 28 32 35 35 34 34 33 32
4 4 3 3 1 1 2 3 4 4 2 2 5 7 7 6 4 5 6 8 9 11 12 14 16 19 22 24 26 27 28 30 31 32 32 32 32 32 33 32 31 30 29 27 27 27 27 28 28 25 22 19 17 13 9 6 3 2 7 10 12 15 18 21 24 28 31 31 30 29 27 25 22 21
Wind_Direction
253 253 255 256 256 257 258 258 256 254 258 263 268 270 269 271 277 284 289 294 298 300 299 300 302 305 302 295 287 278 273 271 272 274 277 281 283 285 287 289 290 289 287 284 280 277 275 274 273 273 274 275 276 277 278 280 283 287 291 295 298 301 304 309 315 321 324 324 324 325 325 324 321 319
254 255 256 258 258 257 256 256 256 256 260 263 267 268 265 264 267 273 282 289 293 293 292 294 297 301 302 297 293 288 283 280 277 276 278 282 285 288 287 286 287 287 288 287 284 280 277 276 275 274 275 276 276 277 278 279 280 282 286 290 293 296 300 305 311 317 320 321 322 324 323 321 319 318
256 257 258 259 260 260 259 257 256 256 259 262 266 266 263 261 262 265 272 279 284 287 285 286 289 292 294 291 287 285 284 283 281 278 277 279 283 285 285 284 285 286 287 287 287 284 280 277 275 275 275 276 277 277 277 278 278 279 282 285 289 292 295 300 306 312 316 317 320 322 320 318 316 315
257 259 259 260 261 262 262 261 260 258 258 261 265 267 265 261 260 260 263 269 276 282 279 278 281 283 285 284 282 282 283 283 282 281 280 280 280 281 282 284 285 285 286 287 287 287 284 280 276 275 275 276 277 277 277 277 276 276 278 280 284 288 291 296 301 307 311 314 318 320 318 315 313 311
257 259 260 260 261 262 262 262 262 262 261 262 264 266 267 264 261 260 261 265 273 281 282 280 282 283 283 281 280 283 284 284 285 285 283 282 280 280 283 283 283 283 283 284 285 285 285 282 278 276 275 275 276 276 276 276 275 274 275 276 280 283 286 291 296 301 307 311 315 318 316 312 310 308
257 258 259 260 260 261 262 262 263 263 263 263 264 266 267 268 265 263 263 265 270 279 285 285 284 284 283 281 282 283 284 286 286 285 283 282 281 281 281 281 281 280 280 279 280 281 281 280 279 277 276 276 276 276 275 275 274 273 273 274 277 279 282 287 292 297 302 307 312 315 314 310 308 306
257 259 260 261 262 263 263 264 264 264 264 265 266 267 268 270 270 267 266 266 269 277 285 287 286 286 284 283 284 284 283 283 283 283 283 283 282 281 281 280 280 279 278 276 275 275 276 276 276 276 276 276 276 276 276 275 274 274 274 275 276 277 278 283 287 292 297 302 308 312 312 308 305 304
257 259 261 261 263 264 265 266 266 266 265 266 267 268 268 269 271 270 268 268 270 275 280 285 287 288 287 286 286 286 285 284 283 283 283 283 282 281 281 280 280 279 278 276 275 274 273 273 274 275 276 277 277 277 277 277 276 276 275 275 275 275 277 280 284 287 292 297 302 307 309 306 303 302
257 258 259 261 262 264 265 266 265 266 266 267 268 269 270 271 272 272 271 271 271 272 276 282 286 286 286 287 287 288 288 288 288 287 286 284 283 281 280 279 280 280 278 277 276 275 274 274 274 275 277 278 278 278 278 278 278 277 277 276 276 276 277 279 281 283 288 292 297 302 306 305 302 300
256 257 259 260 261 263 264 265 266 267 269 270 271 272 274 275 276 276 276 275 275 275 277 281 284 286 286 287 288 289 289 289 289 289 288 287 284 283 282 281 281 281 281 280 279 278 277 276 275 275 276 277 278 278 277 277 276 276 276 276 276 275 276 277 278 280 284 288 292 297 302 303 301 297
257 258 260 261 261 262 264 266 268 270 271 272 273 274 276 278 278 279 280 280 280 280 281 283 285 287 288 288 289 290 290 289 289 289 290 290 290 289 288 286 285 284 283 283 282 280 279 278 276 275 274 274 274 275 276 276 275 275 275 276 275 275 275 276 276 278 280 284 288 292 296 300 300 297
258 259 260 261 263 264 265 267 269 271 272 274 275 276 277 279 280 281 282 284 284 285 285 286 287 289 289 289 290 291 290 289 289 292 293 292 293 295 294 294 294 292 289 286 284 282 280 279 278 277 276 274 273 273 273 274 273 273 274 274 274 274 274 274 274 275 277 280 284 288 291 295 297 296
262 262 263 264 265 266 267 268 269 270 271 273 274 276 278 280 281 282 283 284 285 286 286 286 287 288 288 288 290 290 289 290 291 293 292 292 294 297 298 298 299 299 298 295 291 287 285 284 282 281 279 278 276 274 272 271 271 271 271 272 273 273 273 273 273 273 275 277 279 283 286 289 292 293
265 266 267 269 270 271 272 272 272 273 273 274 275 276 279 281 282 283 284 283 284 285 285 285 286 287 286 287 288 289 289 291 292 292 292 293 295 298 298 299 301 303 303 300 298 297 297 295 291 288 285 282 280 276 273 272 271 271 270 270 271 271 271 271 271 270 271 273 275 277 280 283 286 288
267 269 270 272 274 275 276 277 278 279 279 279 279 279 280 281 282 283 283 283 283 283 284 285 285 286 286 287 289 290 291 292 293 293 294 295 296 298 298 299 303 305 305 302 301 300 301 299 295 291 286 281 278 276 274 272 271 270 269 268 268 268 268 268 268 268 268 268 269 272 275 278 281 283
269 271 273 275 277 278 280 281 283 284 283 283 284 284 283 282 282 281 281 281 282 282 284 285 285 286 288 290 291 292 294 296 296 296 295 295 296 298 298 301 304 306 305 302 298 296 293 290 286 283 279 276 273 272 270 268 267 266 265 265 264 264 264 264 264 264 264 264 264 265 269 273 276 278
270 273 275 278 279 281 283 285 285 286 287 287 287 288 287 285 283 281 281 282 282 283 284 285 286 287 290 291 292 294 297 297 295 294 294 295 297 298 300 302 303 302 298 295 292 290 286 282 278 275 272 272 270 268 267 265 263 262 261 261 261 261 260 260 260 261 261 260 260 260 263 268 271 273
272 274 277 279 280 282 284 285 286 287 289 290 290 290 289 287 285 284 284 285 285 286 286 286 288 291 292 292 293 297 297 293 292 293 293 293 294 295 297 298 297 293 289 286 285 284 283 282 280 277 276 276 276 275 274 272 269 265 262 259 258 258 257 257 256 256 256 256 256 256 258 263 267 268
273 275 277 279 281 282 284 285 287 288 290 291 291 291 290 290 289 288 289 291 292 292 291 290 291 293 294 293 294 296 294 291 291 291 289 288 287 288 290 289 287 285 284 283 279 279 283 285 284 285 287 288 287 284 281 280 277 273 270 265 261 258 256 255 253 252 252 252 252 252 254 258 261 262
273 275 277 279 281 282 284 285 287 289 290 290 290 290 291 292 291 290 293 296 297 297 296 294 293 294 294 292 291 292 293 292 289 284 284 286 284 283 285 284 283 284 285 284 281 280 284 286 284 287 290 289 287 285 282 279 276 274 273 271 268 262 256 253 251 250 248 248 248 249 250 252 256 257
273 275 277 279 280 282 284 286 288 290 289 289 289 289 291 292 291 291 295 297 297 296 295 292 291 291 290 288 288 291 295 295 289 282 285 287 282 280 282 282 285 290 289 287 284 281 285 287 286 287 288 285 284 284 283 280 277 273 270 268 266 264 258 252 250 249 247 245 245 246 247 248 250 252
273 275 276 278 280 282 284 287 290 290 289 288 288 288 289 290 289 292 296 297 295 293 291 290 290 290 290 291 292 295 298 299 294 289 292 291 284 281 281 282 287 292 293 290 285 281 285 290 288 286 285 284 285 286 284 282 279 275 271 266 261 260 258 253 248 247 245 244 243 244 244 244 244 246
274 275 277 279 280 283 287 289 290 290 289 287 288 287 287 286 288 293 295 292 290 291 291 292 293 293 294 295 296 296 298 299 296 294 296 294 289 286 286 286 286 286 289 293 289 285 289 292 291 287 282 279 283 287 285 283 281 276 273 270 265 261 258 253 247 245 244 242 241 241 241 240 240 241
276 277 278 281 283 286 289 290 292 292 290 289 289 287 284 284 286 290 287 282 285 290 292 293 293 293 294 295 295 296 299 299 297 297 299 297 291 288 288 290 286 282 288 294 289 285 288 290 289 288 281 274 276 282 284 284 283 278 274 272 268 264 260 252 244 241 240 240 239 238 238 238 237 239
276 277 281 285 288 290 292 292 293 292 290 291 290 287 285 285 284 283 282 283 287 290 290 290 292 293 295 298 300 302 305 306 303 300 297 295 292 287 285 287 284 283 291 296 289 282 283 282 281 282 280 274 272 275 278 280 281 280 278 274 269 265 261 253 244 238 236 235 235 235 236 237 237 238
276 280 285 289 291 293 291 290 291 289 289 291 289 289 293 289 280 277 280 284 284 285 286 289 293 297 302 306 309 311 313 314 312 305 300 298 297 292 288 286 282 282 291 297 291 283 281 280 278 276 274 271 270 270 269 270 275 278 277 274 270 265 261 256 246 238 233 230 229 231 234 234 235 237
280 284 288 288 288 288 286 285 287 287 288 289 288 292 296 290 280 276 270 267 272 279 288 295 298 304 309 311 312 314 314 313 314 313 310 309 306 301 296 293 289 288 292 296 291 283 280 279 278 275 272 270 268 266 264 264 267 270 272 273 271 267 263 258 248 239 234 229 228 229 229 229 231 235
282 283 283 282 282 281 281 282 283 284 285 286 288 293 295 292 291 286 181 238 295 295 299 305 307 308 312 311 310 311 309 307 308 309 308 307 304 300 294 289 287 286 286 287 285 280 277 277 276 275 273 270 267 265 264 264 264 264 266 269 269 267 265 258 247 239 234 229 227 226 224 223 224 227
276 276 275 275 276 276 276 278 279 281 285 287 291 296 296 295 297 299 339 337 322 312 308 311 309 308 309 308 306 306 305 304 305 306 306 304 302 299 296 293 290 287 284 282 281 277 275 274 275 275 274 272 268 265 264 265 264 263 262 264 266 267 264 255 246 240 235 229 226 226 224 222 223 224
266 268 269 269 269 269 269 273 277 282 287 290 292 294 294 293 298 305 322 333 327 315 310 310 309 309 309 307 307 307 307 307 310 311 309 307 305 304 301 299 297 295 293 291 287 281 277 274 274 274 274 273 270 267 265 264 262 260 259 259 262 263 260 254 246 239 235 231 227 225 224 224 224 225
260 261 261 261 262 264 268 272 277 281 285 287 288 290 292 296 303 312 321 328 327 318 313 310 308 308 308 307 308 309 308 309 312 312 310 308 308 307 306 304 303 304 305 303 298 291 285 281 279 277 275 274 272 270 269 266 263 260 259 259 258 258 259 259 252 241 235 232 227 224 222 221 222 224
254 253 255 257 261 265 268 271 274 276 278 280 283 290 298 304 309 312 315 322 324 321 317 313 310 308 306 305 307 308 308 310 312 311 310 308 308 308 309 310 311 313 315 313 308 300 292 287 285 281 278 276 275 273 271 269 266 264 262 261 260 258 257 257 252 244 235 229 226 223 221 219 219 219
247 249 253 256 259 262 264 266 268 268 269 274 286 297 301 301 303 307 312 318 320 320 321 320 317 314 312 313 314 314 313 313 313 311 310 309 310 311 313 314 315 318 318 316 313 307 299 294 291 286 281 279 277 272 269 268 266 265 262 260 258 256 254 253 252 247 239 231 226 222 219 217 218 218
242 246 251 254 256 259 260 260 259 259 265 279 292 294 294 297 303 310 316 319 322 323 323 323 322 322 324 325 324 323 321 320 318 317 316 317 318 319 319 318 318 319 318 315 312 309 304 302 300 294 289 287 281 272 266 264 265 265 263 259 256 253 253 253 252 248 243 238 232 224 217 215 215 217
243 246 248 250 250 250 250 250 252 260 273 285 288 290 295 304 310 315 317 318 319 320 320 322 325 329 330 330 329 329 329 328 328 329 329 328 326 324 323 321 320 320 318 314 311 310 306 304 303 299 294 292 287 277 267 263 264 264 262 259 257 255 254 252 249 246 243 239 232 224 218 214 212 212
237 236 237 238 239 241 245 250 257 268 278 284 288 295 303 309 312 313 314 315 317 319 322 326 330 331 332 333 333 335 336 336 338 340 338 335 331 329 327 326 325 325 321 316 313 311 307 303 301 299 296 295 292 286 279 273 269 265 262 260 258 257 254 249 245 242 237 232 226 221 218 215 210 208
223 227 231 233 237 246 256 259 264 275 284 290 297 303 306 308 309 312 315 319 322 326 329 332 334 334 335 337 338 341 344 346 346 347 345 341 338 336 335 334 333 330 327 321 316 312 307 303 299 296 296 296 293 289 288 285 279 271 266 262 258 256 253 247 242 240 236 230 227 224 222 218 212 208
230 240 243 246 253 261 264 267 274 285 292 298 304 306 307 308 310 315 322 328 331 333 334 335 338 341 343 345 347 350 353 353 352 352 350 347 344 341 340 340 339 337 333 326 320 315 310 305 298 295 297 297 291 287 287 289 286 282 278 272 263 256 252 248 244 243 240 234 229 224 219 215 212 208
221 226 230 235 240 248 258 269 281 291 298 303 305 304 304 309 315 323 330 333 333 335 337 341 346 349 351 353 355 356 357 357 356 356 354 351 348 345 344 345 347 345 340 331 323 319 315 309 303 300 301 299 295 293 294 294 291 290 290 283 270 258 252 250 246 242 238 233 225 216 210 207 206 204
193 202 214 223 231 244 258 273 287 298 303 302 299 300 307 316 326 333 335 335 335 339 345 352 357 360 1 1 1 1 1 2 1 359 356 353 350 348 349 351 353 353 350 341 332 324 318 313 308 304 302 301 300 300 297 293 292 292 291 286 275 261 252 250 246 240 234 228 219 209 203 199 197 196
193 205 220 231 242 258 271 282 294 301 295 285 291 309 321 329 335 338 337 336 338 346 356 5 9 12 12 10 8 7 6 4 3 0 357 354 352 351 352 355 356 357 355 351 345 337 330 322 315 306 301 300 300 298 294 291 292 292 287 282 277 263 247 242 240 236 230 223 211 199 193 190 190 190
167 184 213 238 261 270 278 291 298 279 246 263 307 328 333 332 331 330 331 337 345 359 13 18 18 17 16 14 13 11 8 5 3 1 359 356 354 353 355 358 359 358 356 353 349 347 345 344 340 330 319 311 306 301 296 292 289 285 279 276 274 261 242 233 229 225 218 208 197 189 184 183 183 183
72 37 8 5 337 306 302 307 277 208 209 283 331 334 328 323 319 321 333 346 0 19 27 24 20 17 16 16 15 12 9 5 3 1 360 358 356 355 356 358 360 359 357 354 352 351 352 355 357 354 348 338 324 308 295 287 284 281 274 271 264 247 231 223 219 215 207 195 188 186 184 178 175 175
21 6 9 12 354 300 279 257 209 188 192 328 338 334 326 320 322 339 3 18 29 36 33 26 21 18 17 17 15 12 9 6 3 1 359 358 357 357 357 358 360 360 358 357 355 356 357 359 359 359 358 356 349 330 305 293 291 283 261 243 229 212 200 192 189 190 186 180 178 180 177 171 169 172
13 5 12 15 347 254 238 232 206 190 195 335 341 336 329 328 343 15 39 46 44 41 36 29 24 22 19 16 14 11 9 7 4 1 359 357 358 358 358 358 0 1 0 0 2 2 2 2 3 5 8 12 11 6 356 343 344 134 148 147 147 151 155 155 157 159 160 161 163 162 158 155 158 163
Height
1597 1597 1597 1598 1598 1600 1600 1601 1602 1602 1603 1604 1604 1604 1604 1604 1603 1602 1601 1599 1600 1600 1600 1601 1601 1601 1602 1602 1602 1602 1601 1602 1601 1601 1601 1601 1601 1601 1601 1601 1600 1600 1600 1600 1600 1600 1599 1599 1598 1598 1598 1597 1597 1597 1597 1596 1596 1595 1595 1594 1593 1592 1592 1591 1590 1589 1587 1586 1585 1583 1582 1581 1580 1579
1596 1596 1596 1596 1597 1598 1599 1600 1600 1601 1602 1602 1603 1603 1603 1603 1603 1603 1602 1599 1598 1599 1599 1599 1600 1600 1600 1600 1600 1600 1600 1600 1600 1600 1599 1599 1599 1600 1600 1599 1599 1599 1599 1598 1598 1598 1597 1597 1597 1596 1596 1595 1595 1595 1594 1594 1594 1593 1593 1592 1591 1591 1590 1589 1588 1587 1586 1584 1583 1582 1580 1579 1579 1578
1594 1594 1594 1595 1595 1596 1597 1598 1599 1600 1600 1601 1601 1601 1601 1601 1601 1602 1602 1599 1597 1597 1598 1598 1599 1599 1599 1599 1598 1598 1599 1599 1599 1598 1598 1598 1598 1598 1598 1598 1597 1597 1597 1596 1596 1596 1595 1595 1594 1594 1593 1593 1592 1592 1592 1592 1591 1591 1590 1590 1589 1588 1588 1587 1586 1585 1584 1583 1582 1580 1579 1578 1577 1576
1593 1593 1593 1593 1594 1595 1596 1596 1597 1598 1599 1599 1599 1599 1599 1599 1599 1600 1601 1598 1595 1596 1597 1597 1597 1597 1597 1597 1597 1597 1597 1597 1597 1597 1597 1597 1597 1596 1596 1595 1595 1595 1595 1594 1594 1593 1593 1592 1592 1591 1591 1590 1589 1589 1589 1588 1588 1588 1588 1587 1587 1586 1585 1585 1584 1583 1582 1581 1580 1579 1578 1576 1576 1575
1591 1591 1591 1592 1593 1594 1594 1595 1596 1596 1597 1597 1597 1598 1597 1597 1598 1598 1598 1597 1594 1593 1595 1595 1595 1596 1595 1595 1595 1595 1595 1595 1595 1595 1595 1595 1595 1594 1594 1593 1593 1593 1593 1592 1591 1591 1590 1590 1589 1588 1588 1587 1586 1586 1585 1585 1585 1585 1585 1584 1584 1584 1583 1582 1582 1581 1580 1579 1578 1577 1576 1575 1574 1573
1590 1590 1590 1590 1591 1592 1592 1593 1594 1594 1595 1595 1595 1596 1595 1595 1596 1596 1596 1595 1593 1591 1591 1593 1593 1593 1593 1593 1593 1593 1593 1593 1593 1592 1592 1593 1592 1592 1591 1591 1591 1590 1590 1589 1589 1588 1587 1586 1585 1585 1584 1583 1583 1583 1582 1582 1582 1582 1582 1581 1581 1581 1580 1580 1579 1578 1578 1577 1576 1575 1574 1573 1572 1572
1588 1588 1588 1588 1590 1590 1591 1591 1592 1592 1593 1593 1593 1593 1593 1593 1594 1594 1594 1593 1591 1589 1588 1589 1590 1591 1591 1591 1591 1591 1591 1590 1590 1590 1590 1590 1589 1589 1588 1588 1587 1587 1587 1586 1586 1585 1584 1583 1582 1581 1580 1580 1580 1580 1580 1580 1580 1579 1579 1579 1578 1578 1577 1577 1577 1576 1575 1575 1574 1573 1572 1571 1570 1570
1586 1586 1586 1586 1588 1588 1588 1589 1589 1590 1590 1590 1591 1591 1591 1591 1592 1592 1592 1591 1590 1588 1586 1585 1587 1588 1588 1588 1588 1588 1588 1588 1587 1587 1587 1586 1586 1585 1584 1584 1583 1583 1583 1583 1582 1581 1580 1579 1578 1578 1578 1578 1578 1578 1578 1578 1578 1577 1577 1577 1576 1575 1575 1575 1574 1574 1573 1572 1572 1571 1570 1569 1568 1568
1583 1583 1584 1585 1586 1586 1586 1586 1587 1587 1588 1588 1588 1588 1589 1589 1589 1590 1589 1589 1588 1587 1584 1583 1584 1585 1585 1584 1585 1585 1585 1584 1584 1583 1583 1583 1582 1581 1580 1580 1579 1579 1579 1579 1578 1577 1577 1576 1576 1576 1576 1576 1576 1576 1576 1576 1576 1576 1575 1575 1574 1574 1573 1573 1572 1571 1571 1570 1570 1569 1568 1567 1566 1565
1581 1581 1581 1582 1584 1584 1584 1584 1584 1585 1585 1585 1585 1586 1586 1587 1587 1587 1586 1586 1586 1585 1583 1581 1581 1581 1581 1581 1582 1582 1582 1581 1580 1579 1578 1577 1577 1577 1576 1576 1576 1576 1575 1574 1574 1574 1574 1573 1573 1573 1573 1573 1573 1573 1573 1573 1573 1573 1572 1572 1572 1571 1571 1571 1570 1570 1569 1568 1568 1567 1566 1566 1565 1564
1578 1578 1579 1580 1581 1581 1581 1581 1582 1583 1583 1583 1583 1583 1584 1584 1584 1584 1583 1583 1582 1582 1580 1579 1578 1577 1577 1578 1578 1578 1579 1577 1576 1575 1574 1572 1572 1572 1571 1571 1572 1573 1571 1570 1570 1570 1570 1570 1569 1569 1570 1570 1569 1569 1569 1569 1569 1569 1569 1569 1569 1568 1568 1568 1568 1567 1567 1566 1566 1565 1564 1564 1563 1562
1575 1576 1576 1577 1578 1579 1579 1579 1580 1580 1581 1580 1580 1581 1581 1581 1581 1581 1581 1580 1579 1578 1577 1576 1575 1574 1573 1573 1573 1574 1574 1572 1571 1571 1570 1567 1567 1568 1567 1567 1568 1569 1568 1566 1565 1564 1565 1565 1565 1565 1565 1565 1566 1565 1565 1565 1565 1565 1565 1565 1565 1565 1565 1565 1564 1564 1564 1564 1563 1563 1562 1561 1561 1560
1572 1572 1573 1574 1575 1575 1576 1576 1577 1578 1578 1578 1578 1578 1578 1578 1578 1578 1577 1577 1576 1575 1573 1572 1571 1570 1568 1568 1569 1569 1568 1568 1567 1567 1566 1563 1563 1564 1563 1562 1565 1565 1564 1562 1560 1559 1560 1561 1561 1561 1561 1561 1562 1562 1561 1561 1560 1560 1561 1561 1561 1561 1561 1561 1561 1561 1561 1561 1560 1560 1560 1559 1558 1558
1568 1569 1570 1570 1571 1572 1572 1573 1574 1574 1575 1575 1575 1575 1576 1575 1575 1574 1574 1573 1573 1571 1569 1568 1567 1565 1563 1564 1566 1564 1564 1564 1563 1562 1562 1560 1561 1562 1560 1559 1561 1562 1560 1558 1555 1555 1557 1557 1556 1556 1555 1555 1556 1556 1555 1555 1556 1556 1556 1557 1557 1557 1557 1557 1557 1557 1557 1557 1557 1557 1557 1556 1556 1555
1564 1565 1566 1567 1567 1568 1568 1569 1570 1571 1571 1571 1572 1572 1573 1572 1572 1571 1570 1569 1569 1567 1565 1564 1564 1562 1559 1560 1562 1561 1560 1561 1560 1559 1559 1558 1558 1559 1557 1556 1556 1558 1557 1554 1550 1550 1553 1553 1551 1549 1548 1547 1548 1548 1548 1549 1550 1550 1551 1551 1551 1552 1552 1552 1552 1553 1553 1553 1553 1553 1553 1553 1553 1552
1561 1561 1562 1563 1563 1564 1564 1565 1566 1566 1567 1567 1568 1568 1569 1569 1568 1567 1566 1565 1565 1564 1562 1560 1559 1558 1557 1556 1557 1558 1558 1557 1556 1555 1555 1555 1556 1556 1556 1555 1553 1552 1552 1549 1546 1544 1545 1546 1543 1540 1539 1539 1539 1539 1540 1541 1542 1543 1543 1544 1544 1545 1546 1546 1547 1547 1548 1548 1548 1548 1549 1548 1549 1549
1557 1557 1558 1558 1559 1559 1560 1561 1562 1562 1563 1563 1564 1564 1564 1564 1563 1562 1562 1562 1561 1561 1559 1557 1554 1555 1555 1552 1551 1554 1555 1553 1551 1550 1550 1551 1552 1553 1554 1554 1550 1547 1545 1543 1541 1537 1535 1536 1535 1531 1530 1531 1531 1532 1532 1533 1534 1535 1536 1536 1537 1538 1539 1540 1541 1542 1542 1543 1543 1543 1544 1544 1544 1545
1552 1553 1554 1554 1554 1555 1556 1556 1557 1558 1559 1559 1560 1560 1560 1559 1558 1557 1557 1557 1558 1557 1557 1554 1550 1551 1552 1548 1546 1550 1552 1549 1547 1546 1546 1547 1550 1552 1553 1551 1544 1538 1535 1535 1535 1530 1527 1528 1527 1524 1524 1527 1527 1528 1529 1530 1530 1530 1530 1530 1531 1531 1532 1533 1534 1535 1536 1537 1537 1538 1539 1539 1540 1540
1548 1549 1549 1550 1550 1550 1551 1552 1553 1554 1555 1556 1556 1556 1556 1555 1553 1551 1551 1552 1553 1553 1553 1550 1547 1546 1547 1545 1542 1544 1547 1546 1544 1543 1544 1546 1549 1550 1548 1542 1534 1529 1527 1529 1532 1528 1523 1523 1522 1520 1522 1524 1523 1523 1525 1525 1525 1526 1526 1526 1526 1526 1527 1527 1527 1529 1530 1531 1531 1532 1533 1534 1535 1536
1544 1545 1545 1546 1546 1546 1547 1548 1550 1551 1552 1552 1552 1552 1552 1551 1549 1546 1547 1547 1547 1547 1547 1545 1543 1542 1542 1541 1538 1539 1542 1541 1539 1540 1542 1543 1544 1543 1538 1531 1526 1525 1524 1525 1528 1525 1519 1518 1519 1517 1518 1517 1515 1515 1517 1517 1518 1519 1519 1520 1521 1521 1521 1521 1521 1523 1524 1525 1526 1526 1527 1529 1530 1531
1540 1541 1541 1542 1542 1542 1543 1544 1546 1547 1548 1548 1548 1548 1548 1548 1545 1542 1543 1542 1541 1541 1541 1539 1539 1538 1537 1536 1534 1534 1537 1536 1535 1538 1538 1537 1537 1536 1530 1525 1522 1522 1520 1520 1523 1521 1513 1511 1514 1512 1511 1510 1508 1507 1508 1508 1509 1510 1510 1511 1511 1512 1513 1514 1516 1517 1519 1520 1520 1521 1522 1523 1525 1527
1536 1536 1537 1538 1539 1538 1539 1541 1542 1543 1543 1543 1543 1544 1545 1544 1541 1539 1539 1537 1535 1536 1536 1535 1534 1533 1531 1531 1530 1530 1531 1531 1532 1534 1532 1531 1532 1530 1525 1521 1519 1517 1514 1515 1518 1515 1506 1505 1509 1507 1503 1502 1500 1500 1501 1500 1500 1501 1501 1501 1502 1502 1505 1508 1510 1512 1513 1514 1515 1516 1517 1518 1520 1522
1531 1532 1533 1535 1535 1535 1536 1537 1538 1539 1539 1539 1539 1541 1541 1540 1538 1536 1535 1533 1530 1530 1531 1530 1529 1528 1527 1526 1525 1525 1526 1527 1528 1528 1527 1526 1526 1523 1519 1519 1518 1512 1507 1509 1513 1510 1502 1501 1503 1502 1499 1494 1492 1492 1493 1493 1493 1494 1494 1494 1495 1496 1498 1501 1504 1506 1508 1509 1510 1510 1511 1513 1515 1516
1527 1528 1529 1530 1531 1532 1533 1533 1534 1535 1535 1535 1535 1536 1537 1536 1535 1534 1532 1529 1528 1528 1526 1525 1525 1523 1522 1521 1520 1520 1521 1521 1521 1521 1522 1522 1520 1517 1514 1514 1514 1507 1501 1503 1506 1503 1498 1497 1497 1496 1494 1489 1484 1485 1485 1485 1486 1487 1486 1486 1488 1490 1492 1493 1496 1499 1501 1503 1505 1506 1507 1508 1509 1510
1523 1524 1525 1527 1528 1529 1529 1529 1530 1531 1531 1531 1531 1531 1532 1531 1532 1532 1530 1526 1526 1525 1522 1520 1520 1519 1517 1517 1516 1516 1516 1515 1515 1515 1514 1514 1514 1512 1510 1509 1508 1502 1496 1499 1500 1495 1492 1492 1491 1490 1488 1483 1478 1477 1477 1477 1478 1478 1477 1478 1480 1482 1485 1486 1488 1491 1494 1497 1499 1501 1503 1504 1504 1505
1519 1520 1522 1523 1524 1525 1525 1525 1526 1526 1527 1527 1526 1525 1527 1526 1525 1527 1527 1524 1523 1521 1519 1517 1516 1515 1515 1514 1513 1513 1511 1511 1511 1510 1508 1507 1505 1504 1503 1503 1501 1495 1492 1494 1495 1491 1487 1484 1483 1483 1481 1476 1472 1471 1469 1469 1470 1471 1471 1471 1472 1474 1477 1479 1481 1483 1487 1490 1492 1495 1498 1499 1500 1502
1516 1517 1518 1519 1520 1521 1521 1521 1522 1522 1522 1522 1521 1521 1522 1520 1517 1518 1523 1524 1523 1520 1517 1516 1514 1513 1513 1511 1510 1509 1507 1506 1505 1504 1503 1501 1498 1497 1495 1495 1493 1488 1486 1488 1489 1486 1481 1477 1475 1476 1473 1470 1468 1466 1462 1461 1463 1465 1465 1465 1466 1468 1469 1471 1474 1477 1480 1483 1486 1488 1492 1494 1495 1497
1513 1513 1514 1515 1516 1517 1517 1517 1518 1518 1518 1519 1518 1518 1517 1515 1511 1511 1516 1521 1521 1517 1515 1514 1512 1511 1510 1509 1507 1506 1504 1503 1501 1500 1499 1497 1494 1492 1490 1488 1485 1482 1481 1481 1481 1480 1476 1471 1469 1469 1467 1466 1464 1461 1457 1456 1455 1457 1460 1461 1462 1463 1463 1465 1469 1471 1474 1477 1480 1482 1484 1486 1489 1491
1509 1510 1511 1512 1513 1513 1514 1514 1514 1515 1515 1515 1515 1514 1513 1511 1508 1507 1509 1513 1516 1514 1512 1511 1510 1508 1508 1506 1505 1503 1502 1500 1498 1496 1495 1492 1490 1487 1484 1482 1479 1476 1475 1474 1473 1472 1471 1467 1464 1463 1462 1461 1459 1455 1453 1452 1449 1451 1454 1456 1457 1458 1458 1459 1463 1466 1468 1470 1472 1474 1476 1479 1482 1484
1506 1507 1507 1508 1509 1510 1510 1511 1511 1511 1511 1511 1511 1511 1510 1508 1506 1504 1504 1507 1511 1512 1510 1508 1507 1506 1504 1503 1501 1500 1498 1496 1494 1492 1490 1487 1485 1483 1479 1474 1471 1468 1467 1466 1464 1463 1462 1460 1459 1458 1455 1453 1452 1450 1448 1446 1444 1444 1447 1449 1451 1451 1451 1454 1458 1461 1462 1464 1465 1467 1470 1473 1477 1479
1503 1504 1504 1505 1506 1506 1507 1507 1508 1508 1508 1507 1507 1507 1506 1505 1504 1503 1502 1503 1505 1507 1507 1506 1504 1503 1502 1500 1498 1497 1494 1492 1491 1489 1486 1482 1480 1478 1474 1468 1463 1461 1460 1458 1456 1454 1453 1452 1451 1451 1448 1446 1444 1443 1443 1442 1439 1439 1440 1441 1443 1443 1444 1448 1452 1454 1455 1457 1460 1462 1464 1467 1471 1474
1500 1500 1501 1501 1502 1503 1503 1504 1504 1504 1504 1504 1504 1504 1503 1503 1502 1502 1501 1501 1501 1501 1502 1502 1501 1501 1499 1498 1497 1495 1493 1491 1489 1486 1483 1480 1476 1474 1469 1463 1457 1454 1451 1449 1448 1447 1445 1444 1443 1442 1441 1439 1436 1436 1437 1435 1433 1434 1434 1434 1435 1436 1438 1440 1443 1446 1449 1451 1452 1453 1456 1459 1463 1466
1496 1497 1497 1498 1498 1499 1499 1500 1500 1501 1501 1501 1501 1501 1501 1501 1501 1500 1500 1500 1499 1498 1498 1498 1498 1497 1496 1495 1493 1491 1489 1487 1486 1483 1480 1476 1472 1469 1465 1459 1454 1449 1444 1440 1438 1439 1438 1437 1435 1433 1432 1431 1429 1428 1429 1427 1425 1427 1428 1427 1428 1429 1430 1432 1435 1439 1442 1443 1443 1445 1448 1451 1456 1460
1493 1493 1494 1495 1495 1496 1496 1497 1497 1498 1498 1499 1499 1499 1499 1499 1499 1498 1498 1498 1497 1497 1496 1495 1495 1493 1492 1490 1489 1487 1484 1482 1480 1478 1475 1472 1467 1463 1459 1453 1449 1446 1441 1435 1432 1431 1430 1429 1427 1424 1423 1422 1419 1419 1421 1421 1419 1420 1421 1420 1420 1421 1422 1425 1427 1430 1432 1434 1435 1436 1438 1443 1448 1452
1490 1491 1492 1492 1493 1493 1493 1494 1495 1496 1496 1497 1497 1497 1497 1497 1497 1496 1496 1495 1495 1495 1494 1493 1492 1490 1488 1486 1484 1482 1480 1477 1475 1472 1469 1466 1462 1458 1454 1449 1444 1441 1437 1432 1427 1426 1425 1423 1421 1418 1415 1414 1411 1409 1412 1415 1414 1414 1414 1414 1414 1415 1415 1416 1419 1421 1424 1426 1427 1428 1431 1435 1439 1443
1488 1489 1490 1490 1491 1491 1492 1492 1493 1493 1494 1495 1495 1496 1495 1495 1495 1494 1494 1494 1494 1493 1492 1491 1489 1487 1485 1483 1481 1479 1477 1473 1470 1468 1464 1461 1458 1453 1450 1446 1441 1436 1432 1428 1424 1422 1419 1418 1417 1414 1411 1410 1407 1404 1404 1408 1409 1409 1409 1409 1409 1409 1409 1409 1412 1414 1416 1418 1419 1421 1424 1427 1430 1434
1486 1487 1489 1489 1489 1490 1491 1491 1491 1492 1492 1493 1493 1494 1493 1493 1493 1492 1492 1492 1491 1490 1489 1487 1486 1484 1482 1480 1478 1476 1473 1470 1467 1464 1461 1457 1454 1450 1445 1441 1437 1432 1427 1423 1420 1418 1416 1414 1414 1412 1409 1406 1404 1400 1399 1401 1403 1404 1404 1403 1402 1402 1402 1404 1406 1408 1411 1413 1415 1416 1418 1421 1424 1428
1485 1486 1487 1487 1488 1489 1490 1491 1491 1491 1491 1491 1491 1491 1491 1491 1491 1490 1490 1489 1488 1487 1486 1485 1483 1482 1479 1477 1475 1472 1470 1467 1464 1461 1458 1455 1451 1447 1442 1438 1433 1428 1423 1419 1417 1415 1413 1411 1410 1409 1407 1404 1400 1397 1396 1396 1397 1398 1399 1398 1397 1396 1396 1397 1398 1400 1403 1406 1409 1412 1415 1417 1420 1425
1483 1484 1485 1486 1486 1488 1490 1490 1490 1489 1489 1489 1489 1490 1490 1490 1489 1489 1488 1487 1486 1485 1484 1482 1481 1479 1477 1475 1473 1470 1468 1465 1462 1459 1456 1453 1450 1446 1441 1436 1431 1425 1420 1416 1414 1412 1411 1409 1407 1406 1404 1401 1398 1396 1394 1392 1391 1393 1394 1394 1393 1392 1390 1390 1391 1393 1396 1399 1403 1408 1412 1415 1420 1427
1482 1483 1484 1485 1485 1487 1488 1488 1488 1488 1488 1488 1488 1488 1488 1488 1487 1487 1486 1485 1484 1483 1482 1480 1479 1477 1475 1474 1472 1469 1466 1464 1461 1458 1455 1452 1449 1445 1440 1436 1430 1425 1419 1415 1412 1410 1409 1407 1405 1403 1401 1398 1395 1393 1391 1389 1387 1387 1388 1388 1389 1388 1386 1385 1385 1387 1389 1392 1396 1401 1406 1411 1418 1425
1481 1482 1483 1484 1485 1485 1486 1486 1486 1486 1486 1486 1487 1487 1486 1486 1485 1485 1484 1483 1482 1481 1480 1479 1477 1476 1475 1473 1471 1468 1465 1463 1461 1458 1454 1450 1447 1444 1440 1435 1430 1425 1420 1416 1412 1410 1407 1405 1402 1399 1397 1394 1392 1390 1387 1385 1384 1383 1382 1382 1383 1383 1383 1383 1384 1385 1386 1388 1391 1396 1402 1410 1417 1423
1481 1482 1482 1483 1484 1484 1484 1484 1485 1485 1485 1485 1485 1485 1485 1484 1483 1483 1482 1481 1480 1480 1479 1477 1476 1476 1474 1473 1470 1467 1464 1462 1460 1457 1454 1450 1446 1442 1439 1435 1430 1425 1421 1417 1413 1410 1407 1403 1400 1396 1393 1391 1389 1387 1384 1383 1381 1380 1379 1378 1378 1379 1380 1381 1383 1385 1387 1389 1390 1392 1398 1406 1415 1422
1480 1481 1482 1482 1482 1482 1482 1483 1483 1483 1484 1484 1484 1484 1483 1482 1482 1481 1481 1480 1479 1478 1477 1477 1476 1475 1474 1472 1469 1467 1464 1462 1459 1456 1453 1450 1446 1442 1439 1435 1431 1427 1423 1419 1415 1411 1407 1402 1398 1394 1391 1389 1387 1385 1383 1381 1380 1379 1378 1378 1377 1378 1379 1380 1383 1386 1390 1394 1397 1398 1400 1406 1413 1420
1479 1480 1480 1480 1481 1481 1481 1481 1482 1482 1483 1483 1483 1483 1482 1481 1480 1480 1479 1478 1478 1477 1477 1476 1476 1474 1472 1470 1469 1466 1464 1462 1459 1456 1453 1450 1447 1443 1439 1435 1432 1428 1425 1421 1417 1412 1407 1403 1398 1395 1392 1389 1387 1385 1383 1381 1380 1380 1380 1381 1380 1380 1381 1383 1386 1389 1394 1399 1405 1409 1412 1416 1421 1426
1478 1479 1479 1479 1479 1480 1480 1480 1481 1481 1481 1481 1481 1481 1480 1480 1479 1478 1478 1477 1477 1477 1477 1476 1475 1473 1471 1470 1468 1466 1464 1462 1459 1456 1454 1451 1448 1444 1440 1436 1433 1430 1426 1423 1418 1414 1410 1405 1401 1398 1395 1392 1390 1388 1386 1384 1382 1383 1384 1385 1386 1386 1387 1388 1390 1393 1397 1403 1409 1414 1419 1424 1428 1432